Location: Betpouey
(42.8833°N, 0.0333°E)
Time: 22:28:45
(UTC+00:00)

MOS 1 Rocket - Pass Details

Date: 01 December 2020
Orbit: 614 x 831 km, 97.4° (Epoch: 19 January)

Event Time Altitude Azimuth Distance (km) Brightness Sun altitude
Exits shadow 18:52:51 33° 6° (N) 1,358 4.6 -26.2°
Maximum altitude 18:55:22 79° 284° (WNW) 845 3.7 -26.6°
Drops below altitude 10° 19:00:41 10° 199° (SSW) 2,383 6.3 -27.6°
Sets 19:02:58 0° 198° (SSW) 3,287 7.1 -28.0°
